FLOCK 3P-85

Last updated on Wed Feb 14 2018 16:20:25 GMT+0000 (Coordinated Universal Time)

1 41983U 17008AM 18044.89098516 .00002232 00000-0 95087-4 0 9996 2 41983 97.4685 110.5869 0009840 76.3845 283.8487 15.23981879 55171

Satellite not in orbit

FLOCK 3P-85